Weather History for Vernon, TX

Change the Weather History Date:

Wednesday, September 25, 2013

  Actual Average (KLTS) Record (KLTS)
Temperature  
Mean Temperature 76 °F -  
Max Temperature 95 °F 81 °F 98 °F (1998)
Min Temperature 57 °F 57 °F 41 °F (2000)
Cooling Degree Days 10    
Growing Degree Days 26 (Base 50)    
Moisture  
Dew Point 51 °F    
Average Humidity 43    
Maximum Humidity 77    
Minimum Humidity 21    
Precipitation  
Precipitation 0.00 in - - ()
Sea Level Pressure  
Sea Level Pressure 29.85 in    
Wind  
Wind Speed 6 mph (South)    
Max Wind Speed 16 mph    
Max Gust Speed 23 mph    
Visibility 9 miles    
Events      
Averages and records for this station are not official NWS values.
T = Trace of Precipitation, MM = Missing Value Source: NWS Daily Summary

Daily Weather History Graph

Daily Weather History Graph

Search for Another Location

Airport:

Trip Planner

Search our weather history database for the weather conditions in past years. The results will help you decide how hot, cold, wet, or windy it might be!

Date:

Astronomy

Sep. 25, 2013 Rise Set
Actual Time 7:27 AM CDT 7:29 PM CDT
Civil Twilight 7:02 AM CDT 7:54 PM CDT
Nautical Twilight 6:33 AM CDT 8:23 PM CDT
Astronomical Twilight 6:03 AM CDT 8:52 PM CDT
Moon 11:50 PM CDT (9/25) 1:20 PM CDT (9/25)
Length of Visible Light 12h 51m
Length of Day
12h 01m
Waning Gibbous, 64% of the Moon is Illuminated
Sep 25
Waning Gibbous
Sep 26
Last Quarter
Oct 4
New
Oct 11
First Quarter
Oct 18
Full

Hourly Weather History & Observations

Time (CDT) Temp. Heat Index Dew Point Humidity Pressure Visibility Wind Dir Wind Speed Gust Speed Precip Events Conditions
12:15 AM 69.1 °F - 47.1 °F 45% 29.93 in 3.0 mi Calm Calm - N/A   Clear
12:35 AM 66.0 °F - 49.8 °F 56% 29.93 in 7.0 mi Calm Calm - N/A   Clear
12:55 AM 63.9 °F - 51.6 °F 64% 29.93 in 10.0 mi SW 8.1 mph - N/A   Clear
1:15 AM 63.0 °F - 52.0 °F 67% 29.93 in 10.0 mi WSW 6.9 mph - N/A   Clear
1:35 AM 63.0 °F - 51.6 °F 66% 29.93 in 10.0 mi WSW 6.9 mph - N/A   Clear
1:55 AM 62.2 °F - 51.1 °F 67% 29.93 in 3.0 mi West 6.9 mph - N/A   Clear
2:15 AM 62.2 °F - 50.9 °F 66% 29.92 in 7.0 mi WSW 6.9 mph - N/A   Clear
2:35 AM 63.1 °F - 50.4 °F 63% 29.92 in 10.0 mi West 8.1 mph - N/A   Clear
2:55 AM 63.0 °F - 50.4 °F 63% 29.92 in 7.0 mi West 6.9 mph - N/A   Clear
3:15 AM 62.6 °F - 50.4 °F 64% 29.92 in 1.5 mi West 6.9 mph - N/A   Unknown
3:35 AM 63.0 °F - 49.8 °F 62% 29.91 in 1.0 mi West 6.9 mph - N/A   Unknown
3:55 AM 63.5 °F - 49.1 °F 59% 29.91 in 10.0 mi West 6.9 mph - N/A   Clear
4:15 AM 63.7 °F - 48.7 °F 58% 29.90 in 10.0 mi West 5.8 mph - N/A   Clear
4:35 AM 64.4 °F - 47.8 °F 55% 29.90 in 10.0 mi WSW 5.8 mph - N/A   Clear
4:55 AM 63.5 °F - 48.4 °F 58% 29.91 in 7.0 mi NE 5.8 mph - N/A   Clear
5:23 AM 59.0 °F - 50.0 °F 72% 29.91 in 5.0 mi NNE 5.8 mph - N/A   Clear
5:41 AM 57.2 °F - 50.0 °F 77% 29.91 in 1.0 mi NNE 4.6 mph - N/A   Unknown
5:55 AM 57.7 °F - 49.5 °F 74% 29.91 in 0.8 mi NNE 4.6 mph - N/A   Unknown
6:23 AM 59.0 °F - 48.2 °F 67% 29.91 in 7.0 mi North 3.5 mph - N/A   Clear
6:35 AM 59.4 °F - 48.0 °F 66% 29.91 in 10.0 mi Calm Calm - N/A   Clear
6:55 AM 59.5 °F - 48.2 °F 66% 29.91 in 10.0 mi NE 5.8 mph - N/A   Clear
7:15 AM 58.6 °F - 48.6 °F 69% 29.91 in 10.0 mi ENE 4.6 mph - N/A   Clear
7:35 AM 58.1 °F - 49.3 °F 72% 29.91 in 10.0 mi Calm Calm - N/A   Clear
7:55 AM 59.0 °F - 48.9 °F 69% 29.92 in 10.0 mi ENE 3.5 mph - N/A   Clear
8:15 AM 59.2 °F - 49.6 °F 71% 29.92 in 10.0 mi Calm Calm - N/A   Clear
8:35 AM 61.3 °F - 50.9 °F 69% 29.92 in 10.0 mi Calm Calm - N/A   Clear
8:55 AM 64.9 °F - 50.0 °F 58% 29.93 in 10.0 mi Calm Calm - N/A   Clear
9:15 AM 67.6 °F - 49.5 °F 52% 29.92 in 10.0 mi East 3.5 mph - N/A   Clear
9:35 AM 70.2 °F - 48.7 °F 46% 29.93 in 10.0 mi Calm Calm - N/A   Clear
9:55 AM 72.9 °F - 46.9 °F 40% 29.93 in 10.0 mi East 3.5 mph - N/A   Clear
10:15 AM 75.2 °F - 46.4 °F 36% 29.93 in 10.0 mi ESE 3.5 mph - N/A   Clear
10:35 AM 77.2 °F - 45.9 °F 33% 29.93 in 10.0 mi South 4.6 mph - N/A   Clear
10:55 AM 79.0 °F - 46.0 °F 31% 29.93 in 10.0 mi SSE 4.6 mph - N/A   Clear
11:15 AM 80.4 °F - 46.6 °F 30% 29.92 in 10.0 mi SSE 5.8 mph - N/A   Clear
11:35 AM 82.6 °F - 46.8 °F 28% 29.92 in 2.5 mi SSE 8.1 mph - N/A   Clear
11:55 AM 84.0 °F - 46.2 °F 27% 29.91 in 2.5 mi South 6.9 mph - N/A   Clear
12:15 PM 85.6 °F - 47.8 °F 27% 29.90 in 5.0 mi South 9.2 mph - N/A   Clear
12:35 PM 86.9 °F - 49.6 °F 28% 29.89 in 10.0 mi South 8.1 mph - N/A   Clear
12:55 PM 87.8 °F - 50.7 °F 28% 29.88 in 10.0 mi South 11.5 mph - N/A   Clear
1:15 PM 88.9 °F - 50.9 °F 27% 29.87 in 10.0 mi South 8.1 mph 16.1 mph N/A   Clear
1:35 PM 90.5 °F - 50.9 °F 26% 29.85 in 10.0 mi South 9.2 mph - N/A   Clear
1:55 PM 91.4 °F - 50.7 °F 25% 29.84 in 10.0 mi South 11.5 mph 17.3 mph N/A   Clear
2:15 PM 91.9 °F - 50.9 °F 25% 29.82 in 10.0 mi South 8.1 mph - N/A   Clear
2:35 PM 93.2 °F - 51.1 °F 24% 29.81 in 10.0 mi SSE 8.1 mph 16.1 mph N/A   Clear
2:55 PM 94.1 °F - 49.5 °F 22% 29.80 in 10.0 mi SSW 11.5 mph 20.7 mph N/A   Clear
3:15 PM 94.3 °F - 48.7 °F 21% 29.79 in 10.0 mi SSE 11.5 mph 17.3 mph N/A   Clear
3:35 PM 94.3 °F - 49.1 °F 21% 29.79 in 10.0 mi South 10.4 mph 23.0 mph N/A   Clear
3:55 PM 94.3 °F - 49.8 °F 22% 29.78 in 10.0 mi SSE 13.8 mph 20.7 mph N/A   Clear
4:15 PM 94.8 °F - 50.2 °F 22% 29.77 in 10.0 mi South 10.4 mph 23.0 mph N/A   Clear
4:35 PM 94.8 °F - 49.5 °F 21% 29.76 in 10.0 mi SSE 15.0 mph 19.6 mph N/A   Clear
4:55 PM 94.6 °F - 50.7 °F 22% 29.76 in 10.0 mi SSE 12.7 mph 18.4 mph N/A   Clear
5:15 PM 94.8 °F - 50.4 °F 22% 29.76 in 10.0 mi South 10.4 mph 17.3 mph N/A   Clear
5:35 PM 94.6 °F - 50.7 °F 22% 29.75 in 10.0 mi SSW 10.4 mph 21.9 mph N/A   Clear
5:55 PM 94.3 °F - 51.1 °F 23% 29.75 in 10.0 mi South 16.1 mph 19.6 mph N/A   Clear
6:15 PM 93.9 °F - 50.7 °F 23% 29.75 in 10.0 mi South 11.5 mph - N/A   Clear
6:35 PM 93.2 °F - 50.7 °F 23% 29.74 in 10.0 mi South 11.5 mph - N/A   Clear
6:55 PM 92.3 °F - 51.6 °F 25% 29.74 in 10.0 mi South 11.5 mph - N/A   Clear
7:15 PM 91.0 °F - 52.0 °F 26% 29.74 in 10.0 mi SSE 10.4 mph - N/A   Clear
7:35 PM 89.2 °F - 52.2 °F 28% 29.74 in 10.0 mi SSE 9.2 mph - N/A   Clear
7:55 PM 87.1 °F - 52.2 °F 30% 29.74 in 10.0 mi SSE 9.2 mph - N/A   Clear
8:15 PM 85.5 °F - 52.7 °F 32% 29.74 in 10.0 mi SE 8.1 mph - N/A   Clear
8:35 PM 84.6 °F 83.1 °F 54.3 °F 35% 29.74 in 10.0 mi SSE 10.4 mph - N/A   Clear
8:55 PM 84.6 °F 83.2 °F 54.9 °F 36% 29.74 in 10.0 mi SSE 10.4 mph - N/A   Clear
9:15 PM 84.2 °F 83.0 °F 55.0 °F 37% 29.74 in 10.0 mi SSE 12.7 mph - N/A   Clear
9:35 PM 83.8 °F 82.8 °F 55.4 °F 38% 29.75 in 10.0 mi SSE 11.5 mph - N/A   Clear
9:55 PM 83.1 °F 82.3 °F 55.8 °F 39% 29.76 in 10.0 mi SSE 11.5 mph - N/A   Clear
10:15 PM 82.6 °F 82.0 °F 55.9 °F 40% 29.76 in 10.0 mi SSE 11.5 mph - N/A   Clear
10:35 PM 81.9 °F 81.4 °F 56.3 °F 41% 29.76 in 10.0 mi SSE 11.5 mph - N/A   Clear
10:55 PM 81.1 °F 81.1 °F 56.5 °F 43% 29.76 in 10.0 mi SSE 10.4 mph - N/A   Clear
11:15 PM 80.2 °F 80.4 °F 56.7 °F 44% 29.76 in 10.0 mi SSE 11.5 mph - N/A   Clear
11:35 PM 79.9 °F - 56.8 °F 45% 29.76 in 10.0 mi SSE 11.5 mph - N/A   Clear
11:55 PM 79.5 °F - 56.8 °F 46% 29.76 in 10.0 mi SSE 11.5 mph - N/A   Clear